User: anonymous   Login
Location: Aressy
(43.2833°N, 0.3167°W)
Time: 00:18:42
(UTC+00:00)
Language:

Cosmos 2315 Rocket - Orbit

View from above orbital plane
View from above orbital plane
View from above satellite
View from above satellite

Ground track
Ground track

The orbit data is extracted from the following two-line orbital elements,

1 23604U 95032B   21104.36899481  .00000055  00000-0  42095-4 0  9994
2 23604  82.9076 197.1595 0022996 311.2607  48.6567 13.74301928292696
Epoch (UTC): 14 April 2021 08:51:21
Eccentricity: 0.0022996
inclination: 82.9076°
perigee height: 967 km
apogee height: 1001 km
right ascension of ascending node: 197.1595°
argument of perigee: 311.2607°
revolutions per day: 13.74301928
mean anomaly at epoch: 48.6567°
orbit number at epoch: 29269

The dashed part of the orbit path shows where the satellite is in the earth's shadow,  

DLR